Hourly Weather Roundup
Issued by NWS Central Illinois

Home | Current Version | Previous Version | Text Only | Print | Product List | Glossary On
Versions: 1 2 3 4 5 6 7 8 9 10 11 12 13 14 15 16 17 18 19 20 21 22 23 24 25 26 27 28 29 30 31 32 33 34 35 36 37 38 39 40 41 42 43 44 45 46 47 48 49 50
000
NZUS43 KILX 170610
HWRILX

Area Weather Roundup
National Weather Service Lincoln IL
1200 AM CST WED JAN 17 2018

NOTE:  "FAIR" indicates few or no clouds below 12,000 feet, with
       no sigificant weather and/or obstructions to visibility.


CITY           SKY/WX    TMP DP  RH WIND       PRES   REMARKS
Bloomington    FAIR       2  -1  88 W13       30.57F WCI -15
6HR MIN TEMP:   2; 6HR MAX TEMP:   8;

Champaign      FAIR       0  -4  83 W9        30.58F WCI -15
6HR MIN TEMP:  -1; 6HR MAX TEMP:   4;

Danville       FAIR       1  -3  85 SW6       30.54F WCI -11
6HR MIN TEMP:  -1; 6HR MAX TEMP:   7;

Decatur        FAIR       6   2  83 W14       30.61F WCI -11
6HR MIN TEMP:   5; 6HR MAX TEMP:   9;

Effingham      FAIR       5   1  83 W7        30.65F WCI  -7
6HR MIN TEMP:   5; 6HR MAX TEMP:  10;

Flora          FLURRIES  11   6  77 W8        30.66F WCI   0
6HR MIN TEMP:  10; 6HR MAX TEMP:  12;

Galesburg      FAIR       0  -3  87 W7        30.62F WCI -13
6HR MIN TEMP:  -1; 6HR MAX TEMP:   6;

Jacksonville   CLEAR      3  -2  79 W7        30.66S WCI -10
6HR MIN TEMP:   1; 6HR MAX TEMP:   8;

Lacon          FAIR       0  -3  87 CALM      30.61S
6HR MIN TEMP:   0; 6HR MAX TEMP:  12;

Lawrenceville  CLOUDY     9   5  84 W6        30.65F WCI  -1
6HR MIN TEMP:   7; 6HR MAX TEMP:   9; 6HR PCP: TRACE;

Litchfield     PTCLDY     5   0  81 W7        30.65S WCI  -7
6HR MIN TEMP:   5; 6HR MAX TEMP:   8;

$$


CITY           SKY/WX    TMP DP  RH WIND       PRES   REMARKS
Lincoln        FAIR       5   1  84 W6        30.62F WCI  -6
6HR MIN TEMP:   5; 6HR MAX TEMP:  11;

Macomb         CLEAR      1  -3  85 W8        30.66F WCI -13
6HR MIN TEMP:   1; 6HR MAX TEMP:   7;

Mattoon        FAIR       4   0  83 W8        30.59F WCI  -9
6HR MIN TEMP:   4; 6HR MAX TEMP:   8; 6HR PCP: TRACE;

Mt Carmel AP   FLURRIES  10   4  78 W8        30.64F WCI  -3
6HR MIN TEMP:   7; 6HR MAX TEMP:  10;

Olney-Noble AP MOCLDY     7   3  82 W3        30.66S
Paris AP       FAIR       3   0  87 W9        30.60F WCI -12
6HR MIN TEMP:   3; 6HR MAX TEMP:   8;

Peoria         FAIR       3  -1  83 W5        30.62F WCI  -6
6HR MIN TEMP:   3; 6HR MAX TEMP:   9;

Pontiac        FAIR       3   2  94 W8        30.58F WCI -10
6HR MIN TEMP:   3; 6HR MAX TEMP:  11;

Rantoul        FAIR       5   2  86 W9        30.57S WCI  -9
6HR MIN TEMP:   5; 6HR MAX TEMP:   8;

Robinson       FLURRIES   8   4  86 W7        30.65S WCI  -4
6HR MIN TEMP:   6; 6HR MAX TEMP:   8;

Springfield    FAIR       1  -3  83 W8        30.64F WCI -13
6HR MIN TEMP:   0; 6HR MAX TEMP:  11;

Taylorville    FAIR       4  -1  80 W9        30.64F WCI -10
6HR MIN TEMP:   4; 6HR MAX TEMP:   9;

$$

...REGIONAL REPORTS...


CITY           SKY/WX    TMP DP  RH WIND       PRES   REMARKS
Chicago O`Hare FAIR      12   7  80 NW8       30.51F WCI   0
Kankakee       FAIR       4   1  84 W10       30.55F WCI -11
Moline         FAIR       4  -1  80 W8        30.62S WCI  -9
Mount Sterling CLEAR      1  -3  80 W7        30.64F WCI -11
Mount Vernon   FLURRIES  10   5  80 CALM      30.68S
Pittsfield     CLEAR      4  -1  79 W5        30.67F WCI  -5
Quincy         CLOUDY     2  -3  80 W7        30.65F WCI -11
Rockford       FAIR       2  -1  88 S5        30.56F WCI  -8
$$


CITY           SKY/WX    TMP DP  RH WIND       PRES   REMARKS
Burlington     CLOUDY     1  -4  79 W5        30.63F WCI  -9
Cedar Rapids   FAIR      -1  -6  79 W8        30.59F WCI -15
Des Moines     CLOUDY    -1  -7  75 SW6       30.63F WCI -13
Kirksville     CLOUDY    -2  -4  91 W6        30.65F WCI -14
Ottumwa        CLOUDY    -1  -6  79 W5        30.64F WCI -11
St Louis       FLURRIES  10   3  73 W12       30.68F WCI  -5
$$


CITY           SKY/WX    TMP DP  RH WIND       PRES   REMARKS
Terre Haute    CLOUDY     8   2  76 W7        30.61F WCI  -3
Evansville     CLOUDY     9   4  80 W6        30.65F WCI  -1
Indianapolis   FLURRIES   6   2  83 SW8       30.55F WCI  -7
Lafayette      FAIR       4   2  91 W8        30.54F WCI  -9
Madison        FAIR       5   2  87 CALM      30.51S
Milwaukee      FAIR      14   9  80 W7        30.50S WCI   4
$$






USA.gov is the U.S. government's official web portal to all federal, state and local government web resources and services.